sat.trackr.live / text

‹ back to catalog

STARLINK-6174

NORAD 57366 · 2023-099AQ

PAYLOAD ACTIVE UNKNOWN

§ Identity

Operator
Country
US
Launch date
2023-07-16
Launch site
AFETR
Launch vehicle
Mass (kg)
RCS (m²)

Purposes: comms

External: N2YO · Heavens-Above · Gunter

§ Orbital elements

Epoch: 2026-05-25T02:04:54.323040Z

Period
94.27 min
Inclination
43.0024°
Eccentricity
0.0001366
Mean motion
15.27572267 rev/d
Perigee alt
482.1 km
Apogee alt
484.0 km
Semi-major
6,861.2 km
B*
4.9367e-5
RAAN
170.1874°
Arg perigee
273.7383°
Mean anomaly
86.3312°
Rev number
15,788

§ Raw data

STARLINK-61741 57366U 23099AQ  26145.08673985  .00001096  00000+0  49367-4 0  99922 57366  43.0024 170.1874 0001366 273.7383  86.3312 15.27572267157885

JSON: /api/v1/satellites/57366 · /tle

For live sub-satellite position, see the globe view (requires WebGL).

§ Visibility from observer

Set your observer location to see the next 7 days of passes ≥ 10°. The values pass through the URL so the page stays shareable.

No JS? Fill the form by hand. The geolocation button needs JavaScript.